Theta_e
310 310 310 310 310 310 309 308 308 307 306 305 303 302 302 302 305 307 307 311 311 312 311 320 327 329 327 326 327 324 329 331 330 330 329 327 327 326 324 325 323 322 323 323 323
308 308 309 309 310 310 310 309 308 308 307 307 306 304 302 301 306 309 311 313 313 310 311 326 328 328 325 326 327 328 329 330 328 328 328 327 327 325 324 325 323 324 324 323 322
306 308 308 308 308 309 309 309 309 309 308 308 307 306 304 301 311 307 313 316 317 312 310 320 327 325 326 325 326 327 332 329 328 329 328 327 328 328 325 325 323 323 323 321 320
305 305 305 306 307 307 306 307 309 310 310 308 308 307 306 305 306 311 315 314 316 316 314 316 319 325 327 327 326 330 328 330 330 330 330 330 329 328 328 327 326 322 323 321 320
306 306 305 304 305 306 306 305 306 308 309 309 308 309 309 312 306 310 317 313 320 317 317 316 316 317 318 322 326 329 328 327 328 329 329 329 328 329 329 327 326 321 323 322 321
307 307 307 306 305 305 305 306 305 305 305 308 309 310 310 307 304 306 309 307 309 319 320 316 316 316 316 316 317 320 322 324 325 327 328 327 326 324 325 324 323 321 322 322 321
305 306 306 306 307 306 305 302 304 306 306 307 309 310 310 311 307 304 306 308 307 308 316 318 317 316 314 315 314 315 316 317 319 321 322 322 323 324 323 322 322 320 320 321 321
305 304 305 306 306 307 307 306 302 303 306 307 308 309 311 310 309 309 309 307 306 310 311 314 318 315 315 314 316 317 317 319 320 320 321 321 324 324 323 321 322 322 319 320 320
305 304 304 304 306 306 306 306 305 304 305 307 307 309 310 308 310 309 308 307 307 307 307 313 315 314 314 316 315 315 317 317 318 319 320 321 322 322 322 321 322 322 321 318 320
305 304 304 304 304 305 305 304 303 306 306 307 307 309 309 310 307 308 308 307 307 309 309 310 315 315 312 313 318 317 318 318 319 320 319 320 321 322 322 322 323 322 321 320 319
305 304 304 304 304 304 305 304 301 308 309 309 308 307 309 310 309 311 308 306 308 311 308 311 313 320 318 319 319 319 320 321 321 321 321 321 321 322 322 321 322 321 320 321 320
304 304 304 304 304 304 305 301 304 305 307 307 307 310 310 310 311 311 309 309 310 307 310 312 313 316 321 320 320 318 318 319 320 321 320 320 321 321 321 321 322 323 321 322 325
304 304 303 303 304 304 302 303 304 303 306 308 308 308 309 310 311 312 312 312 310 309 310 311 313 315 320 320 320 319 317 318 319 320 322 322 324 323 323 322 322 322 321 321 323
303 303 303 303 304 303 304 303 304 303 308 309 312 310 310 310 311 310 312 314 312 310 309 309 311 314 315 319 315 316 317 318 319 320 321 322 325 322 322 322 322 320 319 319 323
301 302 303 303 304 304 303 304 305 305 308 306 308 311 311 311 313 312 311 313 315 312 312 311 311 312 315 315 315 317 318 320 321 323 323 324 323 322 321 323 322 320 320 321 322
303 303 303 303 303 303 304 304 304 310 311 308 307 306 310 313 312 314 314 312 313 315 311 311 312 312 313 316 317 315 317 319 319 320 324 322 323 323 322 323 323 322 324 322 322
303 303 303 304 303 304 304 303 309 311 307 307 306 306 307 308 313 313 314 314 313 315 315 313 312 312 313 313 313 313 312 316 319 321 325 321 323 324 322 322 322 322 323 322 323
302 303 303 303 303 303 304 306 309 307 308 307 306 305 307 307 307 309 313 316 314 314 314 314 314 314 313 312 312 313 315 319 323 325 325 322 326 325 322 322 321 321 322 323 324
302 303 302 304 304 303 306 306 306 307 306 307 306 307 307 307 306 308 309 314 315 314 313 314 314 315 315 314 313 312 315 315 319 322 323 323 323 323 323 324 323 325 325 324 325
302 303 302 304 304 305 306 304 305 305 305 307 308 307 307 307 307 308 309 313 316 315 313 314 313 315 315 315 313 312 312 315 315 323 325 324 324 325 324 325 327 327 325 324 324
302 301 302 304 304 305 307 304 305 304 304 306 307 306 306 307 308 308 310 312 313 313 314 314 314 317 315 315 315 312 314 314 313 317 323 324 324 320 322 324 326 325 324 324 325
300 301 302 303 306 305 303 304 304 304 305 305 306 306 307 308 309 307 309 310 311 311 313 313 312 315 315 315 315 314 313 313 319 320 319 321 323 321 320 320 325 324 324 323 323
301 301 302 302 306 306 305 304 304 305 306 306 307 307 307 308 309 309 310 310 309 309 313 314 316 316 314 317 315 315 314 314 313 318 321 324 324 319 322 321 325 323 324 324 323
301 302 301 302 301 304 306 306 306 305 305 304 306 305 305 306 307 309 308 307 307 307 313 311 316 318 316 317 317 316 315 315 315 316 319 322 322 325 326 326 327 325 324 324 324
296 301 303 303 303 304 303 305 305 307 305 303 304 305 306 307 307 308 309 309 308 309 310 309 312 318 319 316 315 319 316 316 318 318 320 321 321 322 325 325 327 325 323 324 324
300 304 301 302 303 302 302 305 306 306 307 307 306 306 307 308 308 310 311 310 309 309 311 308 310 315 321 318 316 316 318 316 317 318 320 321 321 320 322 326 327 326 325 326 325
302 302 302 301 301 299 299 303 305 306 307 307 307 307 307 308 309 309 308 310 310 310 310 310 311 310 319 318 316 316 316 317 318 320 321 322 321 319 323 328 328 326 326 326 326
Wind_Speed
17 17 17 18 18 17 18 18 18 18 18 19 19 20 21 21 21 18 9 19 16 14 21 7 11 12 4 5 6 4 2 6 7 6 8 2 4 5 4 4 3 6 6 6 17
19 19 19 18 18 19 20 20 20 19 19 18 19 20 21 20 20 15 32 27 30 24 14 13 6 7 4 5 5 6 5 9 9 7 8 11 3 12 6 13 7 4 6 2 29
19 20 21 21 21 20 20 20 20 20 20 19 19 20 19 14 6 10 10 3 6 25 24 18 8 7 5 5 6 7 13 21 13 14 7 9 19 12 7 12 12 10 8 7 10
18 19 20 20 21 22 23 22 21 21 20 20 19 19 18 2 9 3 15 9 6 10 21 10 6 6 6 8 10 5 10 18 23 21 10 15 14 17 19 19 18 11 9 11 13
21 20 19 19 20 20 22 22 22 20 20 19 17 16 9 5 10 14 16 7 7 13 19 9 7 8 8 5 2 6 15 16 14 15 16 16 18 19 23 19 19 9 9 16 16
23 23 22 21 21 21 21 22 23 24 22 19 16 12 4 12 14 30 39 32 20 5 11 9 9 9 4 8 5 7 8 13 11 17 16 20 17 10 17 14 12 8 12 13 15
23 24 24 25 23 23 23 25 25 24 23 20 17 15 15 24 11 12 18 16 26 25 9 20 17 6 6 6 7 7 14 17 11 11 19 15 16 21 16 10 13 10 11 14 18
26 27 27 26 26 26 26 28 30 27 24 20 15 16 12 16 23 36 36 38 32 13 21 21 17 9 4 2 7 4 3 7 6 15 14 7 26 19 18 8 14 12 11 13 14
26 27 28 27 27 29 32 34 35 33 26 19 13 12 13 13 15 44 35 20 24 25 18 8 7 7 4 7 4 2 14 15 21 10 6 7 15 10 9 8 12 15 12 11 16
24 26 27 27 27 27 31 38 28 9 4 9 14 3 10 8 10 11 18 29 8 6 4 8 5 6 5 5 13 10 8 6 17 1 8 13 13 17 16 9 14 15 11 12 14
26 27 25 25 27 26 27 17 5 2 2 8 6 7 4 21 17 6 11 16 10 5 12 9 8 19 18 21 17 8 8 9 8 4 7 8 9 15 14 7 14 15 10 12 8
26 26 26 25 24 23 22 2 4 5 11 13 20 23 38 17 9 8 22 8 9 18 10 7 30 19 16 16 16 9 9 17 18 8 7 9 14 15 12 12 8 13 13 6 5
28 27 25 25 25 14 5 11 9 16 5 11 13 10 14 15 13 10 11 7 7 15 26 28 20 16 20 16 18 18 17 15 19 2 6 8 14 12 16 5 9 9 8 6 11
26 25 25 24 13 8 9 3 23 14 5 8 6 7 7 9 13 19 11 7 8 19 19 18 21 22 17 24 17 19 16 21 18 5 6 4 5 5 8 10 7 10 7 10 7
23 24 22 17 15 7 7 22 25 3 5 2 3 4 4 13 6 16 25 11 10 10 11 12 18 24 21 21 22 18 11 9 10 6 4 9 3 7 4 8 11 11 7 6 8
26 25 22 17 12 18 18 22 3 2 8 6 4 11 3 11 18 4 13 10 7 4 9 10 9 25 25 14 19 7 4 2 4 4 12 19 7 5 7 8 7 4 1 7 10
26 25 22 16 6 1 16 7 2 5 4 1 10 16 10 9 8 10 11 17 18 12 16 6 12 3 7 15 6 7 7 2 3 5 7 7 6 15 7 9 9 9 7 8 9
27 25 17 19 17 8 3 1 6 5 11 16 15 15 6 20 8 12 10 14 23 15 10 14 11 22 12 9 12 14 14 6 6 4 4 7 7 7 8 10 8 9 8 10 11
25 14 13 7 6 8 2 6 4 3 11 11 14 7 7 14 8 12 7 7 12 20 6 12 14 2 16 6 14 9 16 12 3 2 2 4 7 9 2 5 6 7 10 10 12
17 9 8 14 7 5 1 6 4 5 10 11 6 7 12 15 9 15 5 15 10 4 3 3 5 8 19 19 18 10 10 8 5 5 4 5 4 6 4 5 3 7 8 9 8
7 4 5 4 8 1 2 4 5 7 10 5 6 8 12 13 6 7 5 8 17 18 10 4 1 3 6 16 21 8 8 5 7 6 5 2 6 7 9 9 11 9 9 12 13
4 3 15 11 1 1 1 3 8 8 6 5 5 11 12 9 6 7 7 9 11 15 9 5 5 5 13 2 20 13 12 10 9 6 6 3 7 5 9 10 14 11 10 8 9
4 2 12 5 2 1 3 4 6 5 5 3 4 3 9 8 6 2 8 11 8 14 12 8 5 5 6 2 4 23 19 17 4 3 7 9 8 3 4 6 7 11 10 9 11
2 4 2 2 2 3 3 4 4 6 9 6 7 4 8 11 6 8 13 10 15 16 14 7 4 10 12 3 5 6 21 11 16 12 10 9 3 3 5 9 6 7 7 11 12
3 2 3 4 3 4 3 4 7 7 4 4 3 2 8 8 11 10 13 12 13 15 2 3 4 6 16 21 10 3 11 21 19 14 15 12 9 9 10 10 14 11 9 11 12
1 2 3 4 7 5 3 2 4 8 3 6 4 9 6 5 8 10 12 11 5 6 6 4 4 7 7 14 21 16 4 22 21 16 11 8 8 8 9 6 7 13 14 15 15
2 2 2 3 5 3 3 6 8 12 6 7 10 6 6 8 7 8 9 8 7 4 5 6 3 10 6 8 11 15 27 9 15 17 18 10 9 8 5 13 14 11 15 18 17
Wind_Direction
332 328 326 326 324 325 325 324 326 323 322 318 320 315 310 311 307 301 260 251 258 285 256 245 169 180 167 207 154 136 101 253 239 190 252 262 350 296 294 251 290 211 176 234 182
336 332 329 324 319 316 314 314 316 319 322 323 325 323 321 324 320 280 263 275 270 256 233 182 160 163 187 228 170 160 169 236 219 201 248 291 247 292 329 307 280 258 255 190 166
334 334 331 327 324 319 310 308 308 312 314 318 322 325 328 332 310 249 274 185 254 247 237 207 152 159 212 200 192 188 216 236 272 244 219 274 289 294 271 283 264 258 239 163 166
337 326 322 323 322 317 316 315 309 304 305 308 314 322 328 311 239 234 159 70 358 220 203 180 151 178 222 198 211 227 228 239 246 264 274 263 284 285 285 271 274 236 217 164 183
337 333 329 319 315 317 315 309 303 297 297 300 307 319 336 250 233 225 205 303 339 167 190 177 153 184 225 207 186 201 245 249 264 276 273 279 268 265 278 278 277 254 176 184 191
337 333 329 326 323 312 308 306 300 296 298 299 302 310 249 249 252 249 255 272 257 219 185 183 193 185 203 241 234 259 268 268 262 260 266 265 273 281 276 280 274 206 205 199 199
332 331 329 324 319 316 312 304 299 298 296 294 295 287 255 243 248 245 259 272 265 246 232 208 215 190 165 307 279 254 284 282 263 262 260 278 282 268 274 264 273 230 221 210 210
331 330 327 324 320 314 310 309 305 292 286 282 284 273 255 273 274 263 248 260 257 236 232 236 223 223 171 272 336 2 306 268 256 251 257 183 267 276 272 251 265 258 231 213 218
329 327 327 324 320 318 316 313 303 291 272 259 256 231 273 284 229 241 236 226 232 237 248 239 158 192 118 208 315 278 260 268 275 235 253 183 277 269 274 254 268 271 257 214 224
327 325 324 324 324 317 320 315 321 321 211 191 222 216 247 233 236 235 236 215 228 186 170 188 188 180 161 143 214 213 230 242 250 326 215 254 259 273 275 272 281 280 267 219 223
326 325 325 324 323 322 326 338 8 29 198 215 209 246 296 15 262 236 180 166 177 212 187 174 196 210 192 207 216 222 223 248 276 243 250 245 262 275 279 290 270 268 252 238 233
326 324 324 323 322 318 311 235 240 326 297 267 252 240 264 282 298 287 145 141 177 199 166 170 226 201 206 207 216 223 242 258 280 274 228 271 262 268 283 276 237 249 252 169 162
326 324 323 325 321 312 294 264 325 337 270 275 226 229 214 201 227 250 181 152 175 190 191 202 229 204 203 206 212 223 228 246 246 354 292 302 287 280 283 288 262 251 237 189 194
326 323 324 327 322 328 286 8 326 321 293 277 222 251 197 210 225 224 222 186 190 199 199 229 227 191 203 215 198 222 216 239 256 277 255 131 287 301 287 300 292 274 252 235 162
325 324 322 320 294 277 277 323 328 189 294 245 135 128 229 184 152 218 194 214 202 165 179 210 186 212 213 210 200 224 212 225 245 250 292 256 274 269 242 281 271 263 274 225 152
321 320 317 316 277 271 298 322 325 181 244 307 71 350 40 220 248 336 168 208 175 223 229 216 205 201 217 200 202 169 153 260 272 268 261 264 189 213 232 223 252 241 48 137 141
321 314 303 279 259 270 313 337 183 221 298 30 356 343 11 336 220 248 247 192 188 193 216 178 225 211 171 205 163 172 108 268 281 215 226 239 191 246 248 236 230 246 180 145 131
326 318 302 276 276 291 275 108 229 259 259 346 358 332 34 7 344 337 235 200 216 198 185 201 211 211 173 182 187 199 179 166 205 197 189 170 234 243 224 266 233 243 141 142 150
330 328 311 333 306 213 208 213 235 288 21 344 342 342 352 354 334 352 343 251 225 215 183 199 231 175 186 168 162 193 207 184 10 313 72 219 285 329 314 244 200 149 135 159 161
331 322 299 330 158 157 179 243 275 339 1 354 359 347 334 338 6 359 315 27 349 328 174 268 207 214 206 193 198 168 151 177 201 211 207 266 255 216 224 261 148 148 164 155 143
334 338 2 67 146 139 219 258 304 308 309 327 340 312 309 316 4 340 299 345 23 350 333 204 151 278 160 204 188 175 197 162 156 216 170 184 256 219 206 191 190 195 180 164 166
6 328 358 331 189 214 220 258 305 296 299 287 254 272 276 321 314 312 275 323 7 17 349 288 227 216 225 246 194 199 196 205 185 203 227 162 259 227 213 202 182 182 175 173 158
344 298 3 65 336 147 295 277 270 294 287 277 277 255 286 294 310 304 317 328 323 12 345 331 281 259 338 346 181 198 202 206 172 96 193 189 251 175 171 165 203 158 170 163 153
341 336 319 19 222 304 311 270 281 282 295 250 247 267 288 286 293 289 281 286 308 311 328 338 282 247 217 224 145 186 199 172 189 218 219 222 185 194 185 156 165 169 170 159 164
17 316 341 321 321 296 284 297 312 339 308 289 301 265 302 285 303 273 278 302 305 313 9 36 276 308 275 258 278 202 191 198 205 200 199 221 193 209 194 185 183 183 141 150 163
22 342 345 275 292 301 304 306 300 331 259 293 253 291 286 270 281 290 297 296 307 300 348 3 281 324 267 244 241 248 247 202 213 213 225 175 218 206 202 128 123 177 167 174 180
297 237 213 285 318 339 278 342 294 311 284 232 295 305 281 275 316 292 290 280 238 229 263 297 333 351 280 243 242 257 241 222 211 203 203 183 215 157 145 169 177 177 183 183 182